Tracking 19242 objects as of 18-Sep-2018
HD Live streaming from Space Station
objects crossing your sky now

ECHOSTAR 6

Track ECHOSTAR 6 now!
ECHOSTAR 6 is classified as:


NORAD ID: 26402
Int'l Code: 2000-038A
Perigee: 36,202.7 km
Apogee: 36,224.8 km
Inclination: 5.0 °
Period: 1,457.6 minutes
Semi major axis: 42584 km
RCS: 25.1188 m2 (large)
Launch date: July 14, 2000
Source: United States (US)
Launch site: AIR FORCE EASTERN TEST RANGE (AFETR)

CONUS, Hawaii, Alaska and Puerto Rico; 32 Ku-band transponders
aabbcc
Your satellite tracking list
Your tracking list is empty




NASA's NSSDC Master Catalog

Two Line Element Set (TLE):
1 26402U 00038A   18260.36017735 -.00000239 +00000-0 +00000-0 0  9999
2 26402 005.0415 064.8361 0002595 138.1072 249.5082 00.98792176066553
Source of the keplerian elements: AFSPC